Location: ?
(35.4214°N, 139.3011°E)
Time: 03:27:30
(UTC+00:00)

BREEZE M DEB (TANK) - Visible Passes

Search period start: 23 October 2020 00:00
Search period end: 02 November 2020 00:00
Orbit: 291 x 14526 km, 49.6° (Epoch: 22 October)

Date Brightness Start Highest point End Pass type
(mag) Time Alt. Az. Time Alt. Az. Time Alt. Az.
23 Oct 9.6 12:09:41 21° ESE 12:34:01 23° E 13:20:06 10° ENE visible
23 Oct 8.9 15:23:39 10° SSW 17:36:32 87° NW 18:17:57 10° NE visible
24 Oct 9.3 13:39:21 10° S 15:39:16 69° ESE 16:33:59 10° NE visible
24 Oct 7.8 19:33:48 17° W 21:03:08 59° N 21:18:39 10° ENE visible
25 Oct 9.4 12:05:50 10° SSE 13:49:36 45° E 14:47:31 10° NE visible
25 Oct 8.5 16:51:36 10° SW 19:08:33 69° NNW 19:36:08 10° ENE visible
26 Oct 9.6 11:55:16 22° E 12:07:42 22° E 12:53:16 10° ENE visible
26 Oct 9.0 14:56:52 10° SSW 17:08:23 88° NW 17:52:58 10° NE visible
27 Oct 9.2 13:13:20 10° S 15:11:06 68° ESE 16:08:38 10° NE visible
27 Oct 7.9 19:18:10 23° W 20:37:10 60° N 20:53:54 10° ENE visible
28 Oct 9.4 11:40:35 10° SSE 13:22:12 43° E 14:21:36 10° NE visible
28 Oct 8.5 16:23:15 10° SW 18:41:12 70° NNW 19:11:10 10° ENE visible
29 Oct 9.6 11:38:23 21° E 11:41:09 21° E 12:25:51 10° ENE visible
29 Oct 9.0 14:30:00 10° SSW 16:39:43 90° NW 17:27:41 10° NE visible
29 Oct 7.1 20:49:39 10° WNW 22:00:54 62° NNE 22:11:05 10° E visible
30 Oct 9.2 12:47:11 10° S 14:42:38 66° ESE 15:42:57 10° NE visible
30 Oct 7.9 19:00:24 28° W 20:10:48 61° N 20:28:52 10° ENE visible
31 Oct 9.4 11:15:14 10° SSE 12:55:39 42° E 13:55:18 10° NE visible
31 Oct 8.6 15:54:55 10° SW 18:13:18 72° NNW 18:45:53 10° ENE visible
01 Nov 9.6 11:19:39 19° E 11:19:39 19° E 11:57:47 10° ENE visible
01 Nov 9.1 14:03:01 10° SSW 16:10:33 89° SE 17:02:06 10° NE visible
01 Nov 7.2 20:17:16 10° WNW 21:35:02 63° NNE 21:45:59 10° E visible
